Location: Newark
(42.0275°N, 4.0028°W)
Time: 23:28:37
(UTC+00:00)

Envisat - Visible Passes

Search period start: 30 September 2020 00:00
Search period end: 10 October 2020 00:00
Orbit: 764 x 766 km, 98.1° (Epoch: 30 September)

Date Brightness Start Highest point End Pass type
(mag) Time Alt. Az. Time Alt. Az. Time Alt. Az.
30 Sep 5.7 05:26:21 10° NE 05:30:29 25° E 05:34:37 10° SSE visible
30 Sep 5.4 18:20:19 10° SSW 18:24:41 29° W 18:29:05 10° NW visible
01 Oct 6.6 04:52:07 10° ENE 04:53:17 11° E 04:54:27 10° E visible
02 Oct 6.2 18:47:10 10° SW 18:50:22 17° W 18:53:34 10° NW visible
03 Oct 6.0 05:15:22 10° NE 05:19:01 20° E 05:22:39 10° SE visible
05 Oct 5.0 05:40:04 10° NNE 05:44:40 34° E 05:49:15 10° SSE visible
05 Oct 6.0 18:35:05 10° SW 18:38:53 21° W 18:42:43 10° NW visible
06 Oct 6.2 05:04:35 10° NE 05:07:33 15° E 05:10:29 10° SE visible
07 Oct 6.5 19:02:48 10° WSW 19:04:37 12° W 19:06:25 10° WNW visible
08 Oct 5.5 05:28:56 10° NE 05:33:13 27° E 05:37:29 10° SSE visible
08 Oct 5.5 18:23:11 10° SSW 18:27:25 27° W 18:31:41 10° NW visible
09 Oct 6.5 04:54:11 10° ENE 04:56:02 12° E 04:57:54 10° ESE visible
